Regional Weather Roundup
Issued by NWS

Home | Current Version | Previous Version | Graphics & Text | Print | Product List | Glossary On
Versions: 1 2 3 4 5 6 7 8 9 10 11 12 13 14 15 16 17 18 19 20 21 22 23 24 25 26 27 28 29 30 31 32 33 34 35 36 37 38 39 40 41 42 43 44 45 46 47 48 49 50
000
ASUS43 KDTX 181910
RWRMI
MICHIGAN HOURLY REGIONAL WEATHER ROUNDUP
NATIONAL WEATHER SERVICE DETROIT/PONTIAC MI
200 PM EST THU DEC 18 2014

NOTE: "FAIR" INDICATES FEW OR NO CLOUDS BELOW 12,000 FEET WITH NO
SIGNIFICANT WEATHER AND/OR OBSTRUCTION TO VISIBILITY.

MIZ047>049-052>055-059>063-066>070-074>076-081>083-182000-
SOUTHEAST LOWER MICHIGAN

CITY           SKY/WX    TMP DP  RH WIND       PRES   REMARKS
ADRIAN         CLOUDY    32  25  75 NW7       30.18F
ALMA           CLOUDY    31  27  84 NW6       30.16F
ANN ARBOR      CLOUDY    32  26  78 W10       30.16F
BAD AXE        CLOUDY    26  23  89 N7        30.16F
DETROIT CITY   CLOUDY    34  26  72 W7        30.16F
DETROIT        CLOUDY    32  26  78 W9        30.17F
FLINT          CLOUDY    32  28  85 W7        30.15F
GROSSE ILE     CLOUDY    34  28  80 W8        30.16S
HILLSDALE      CLOUDY    31  28  88 W9        30.15F
HOWELL         CLOUDY    31  28  90 NW7       30.14F

CITY           SKY/WX    TMP DP  RH WIND       PRES   REMARKS
JACKSON        CLOUDY    31  26  82 W6        30.15F
LAMBERTVILLE   CLOUDY    32  27  80 W6        30.18F
LANSING        CLOUDY    31  28  89 NW6       30.16F FOG
LAPEER         NOT AVBL
MASON          CLOUDY    31  28  89 W8        30.15F
MONROE         CLOUDY    32  27  80 W9        30.16S
MT. CLEMENS    CLOUDY    32  31  99 VRB7      30.13F
PONTIAC        FRZ DRZL  31  28  89 NW6       30.12F
PORT HOPE        N/A     27  22  81 NW7       30.14F
PORT HURON     CLOUDY    30  27  86 NW6       30.15F
TRI CITIES     CLOUDY    31  24  75 NW8       30.17F
$$
MIZ043>046-050>051-056>058-064>065-071>073-077>080-182000-
SOUTHWEST LOWER MICHIGAN

CITY           SKY/WX    TMP DP  RH WIND       PRES   REMARKS
BATTLE CREEK   CLOUDY    31  25  78 W9        30.17F
BENTON HARBOR  CLOUDY    28  24  85 SW6       30.22F
BIG RAPIDS     CLOUDY    29  26  89 W3        30.15F
COLDWATER      CLOUDY    28  26  89 W9        30.18F
HOLLAND        LGT SNOW  33  28  81 SW15      30.19F
GRAND RAPIDS   CLOUDY    31  29  92 SW9       30.17F
KALAMAZOO      CLOUDY    30  24  78 SW8       30.19F
MARSHALL       CLOUDY    30  26  84 W8        30.16F
MUSKEGON       CLOUDY    34  26  72 NW5       30.19F
$$
MIZ016>042-182000-
NORTHERN LOWER MICHIGAN

CITY           SKY/WX    TMP DP  RH WIND       PRES   REMARKS
ALPENA         CLOUDY    24  19  81 NW9       30.19S
BEAVER ISLAND  SUNNY     24  10  55 N7        30.23S
BELLAIRE       MOSUNNY   27  19  74 CALM      30.20F
CADILLAC       CLOUDY    26  21  82 W3        30.13F
CHARLEVOIX     SUNNY     24  16  72 N6        30.24S
FRANKFORT      PTCLDY    30  22  70 N6        30.20F
GAYLORD        SUNNY     23  16  74 NE5       30.14F
GRAYLING       PTSUNNY   28  22  79 CALM      30.15F
HARBOR SPRINGS SUNNY     25  15  66 CALM      30.20F
HOUGHTON LAKE  CLOUDY    26  19  74 N3        30.15F
MANISTEE       CLOUDY    28  19  69 N7        30.20F
OSCODA         CLOUDY    26  21  80 NW6       30.16F
PELLSTON       SUNNY     23  13  65 N8        30.22S
TRAVERSE CITY  PTSUNNY   29  23  78 NW9       30.18F
$$
MIZ007>008-015-182000-
EASTERN UPPER MICHIGAN

CITY           SKY/WX    TMP DP  RH WIND       PRES   REMARKS
KINROSS        SUNNY     25  12  58 N5        30.21F
MACKINAC ISLAN SUNNY     23  10  56 N8        30.21F
NEWBERRY       SUNNY     23  16  72 N5        30.22S
S. S. MARIE    SUNNY     25   4  40 NW5       30.20F
$$
MIZ004>006-011>014-085-182000-
CENTRAL UPPER MICHIGAN

CITY           SKY/WX    TMP DP  RH WIND       PRES   REMARKS
MANISTIQUE     SUNNY     26  15  61 N9        30.23F
ESCANABA       SUNNY     28  12  50 NE5       30.23F
MENOMINEE      MOSUNNY   30  18  59 CALM      30.24F
SAWYER-GWINN   SUNNY     25  18  74 NE10      30.22F
$$
MIZ001>003-009>011-084-182000-
WESTERN UPPER MICHIGAN

CITY           SKY/WX    TMP DP  RH WIND       PRES   REMARKS
IRON MOUNTAIN  SUNNY     27  16  63 N6        30.22F
HOUGHTON       SUNNY     26  17  68 CALM      30.24F
COPPER HARBOR    N/A     29  17  61 NE5       30.28F
IRONWOOD       SUNNY     25  18  74 E5        30.21F
$$

ABBREVIATIONS USED IN REMARKS
   TC - TEMPERATURE IN CELSIUS
  WCI - WIND CHILL INDEX
   HX - HEAT INDEX
  VSB - VISIBILITY




USA.gov is the U.S. government's official web portal to all federal, state and local government web resources and services.